Location: Unspecified
(49.2170°N, 0.0000°E)
Time: 19:56:34
(UTC+00:00)

A-11 Canister half - Pass Details

Date: 18 June 2019
Orbit: 1526 x 1683 km, 47.3° (Epoch: 21 August)

Event Time Altitude Azimuth Distance (km) Brightness Sun altitude
Rises 06:14:10 0° 235° (SW) 4,717 11.0 19.6°
Reaches altitude 10° 06:17:17 10° 232° (SW) 3,720 10.6 20.1°
Maximum altitude 06:26:24 61° 156° (SSE) 1,708 9.7 21.5°
Drops below altitude 10° 06:35:29 10° 79° (E) 3,701 13.1 23.0°
Sets 06:38:34 0° 76° (ENE) 4,692 13.0 23.5°
